Meteo pe oră la Al Khafji

Astăzi, 27 Ianuarie, Miercuri

Timp Temperatura Precipitaţii Vânt Presiune Umiditate
00:00 +16°C° 0 mm 2 m/s 764 mmHg 26%
01:00 +16°C° 0 mm 2 m/s 764 mmHg 25%
02:00 +16°C° 0 mm 3 m/s 764 mmHg 24%
03:00 +16°C° 0 mm 3 m/s 764 mmHg 23%
04:00 +16°C° 0 mm 3 m/s 764 mmHg 24%
05:00 +14°C° 0 mm 3 m/s 764 mmHg 25%
06:00 +14°C° 0 mm 3 m/s 764 mmHg 25%
07:00 +16°C° 0 mm 3 m/s 765 mmHg 24%
08:00 +17°C° 0 mm 3 m/s 765 mmHg 22%
09:00 +18°C° 0 mm 3 m/s 765 mmHg 20%
10:00 +20°C° 0 mm 2 m/s 765 mmHg 19%
11:00 +21°C° 0 mm 2 m/s 765 mmHg 17%
12:00 +23°C° 0 mm 2 m/s 764 mmHg 16%
13:00 +24°C° 0 mm 2 m/s 764 mmHg 17%
14:00 +24°C° 0 mm 2 m/s 763 mmHg 17%
15:00 +24°C° 0 mm 3 m/s 763 mmHg 18%
16:00 +22°C° 0 mm 3 m/s 763 mmHg 23%
17:00 +20°C° 0 mm 2 m/s 763 mmHg 29%
18:00 +18°C° 0 mm 2 m/s 763 mmHg 34%
19:00 +18°C° 0 mm 2 m/s 763 mmHg 36%
20:00 +18°C° 0 mm 2 m/s 764 mmHg 38%
21:00 +17°C° 0 mm 2 m/s 764 mmHg 40%
22:00 +17°C° 0 mm 2 m/s 763 mmHg 41%
23:00 +17°C° 0 mm 2 m/s 763 mmHg 42%

Mâine, 28 Ianuarie, Joi

Timp Temperatura Precipitaţii Vânt Presiune Umiditate
00:00 +17°C° 0 mm 2 m/s 763 mmHg 42%
01:00 +17°C° 0 mm 2 m/s 763 mmHg 44%
02:00 +16°C° 0 mm 3 m/s 762 mmHg 45%
03:00 +16°C° 0 mm 3 m/s 762 mmHg 46%
04:00 +16°C° 0 mm 3 m/s 762 mmHg 48%
05:00 +15°C° 0 mm 4 m/s 762 mmHg 49%
06:00 +15°C° 0 mm 4 m/s 763 mmHg 50%
07:00 +17°C° 0 mm 4 m/s 763 mmHg 46%
08:00 +18°C° 0 mm 4 m/s 763 mmHg 43%
09:00 +19°C° 0 mm 5 m/s 763 mmHg 39%
10:00 +21°C° 0 mm 5 m/s 763 mmHg 35%
11:00 +22°C° 0 mm 5 m/s 762 mmHg 31%
12:00 +24°C° 0 mm 6 m/s 762 mmHg 27%
13:00 +26°C° 0 mm 6 m/s 762 mmHg 25%
14:00 +27°C° 0 mm 6 m/s 761 mmHg 24%
15:00 +27°C° 0 mm 7 m/s 760 mmHg 23%
16:00 +26°C° 0 mm 7 m/s 761 mmHg 30%
17:00 +23°C° 0 mm 7 m/s 761 mmHg 38%
18:00 +21°C° 0 mm 7 m/s 761 mmHg 46%
19:00 +21°C° 0 mm 7 m/s 761 mmHg 48%
20:00 +20°C° 0 mm 7 m/s 761 mmHg 50%
21:00 +20°C° 0 mm 7 m/s 761 mmHg 52%
22:00 +20°C° 0 mm 7 m/s 761 mmHg 51%
23:00 +20°C° 0 mm 6 m/s 761 mmHg 51%

Poimâine, 29 Ianuarie, Vineri

Timp Temperatura Precipitaţii Vânt Presiune Umiditate
00:00 +19°C° 0 mm 6 m/s 761 mmHg 50%
01:00 +19°C° 0 mm 6 m/s 761 mmHg 46%
02:00 +17°C° 0 mm 6 m/s 760 mmHg 42%
03:00 +17°C° 0 mm 5 m/s 760 mmHg 38%
04:00 +17°C° 0 mm 5 m/s 760 mmHg 40%
05:00 +16°C° 0 mm 5 m/s 761 mmHg 42%
06:00 +16°C° 0 mm 5 m/s 761 mmHg 44%
07:00 +17°C° 0 mm 6 m/s 761 mmHg 39%
08:00 +19°C° 0 mm 6 m/s 761 mmHg 34%
09:00 +21°C° 0 mm 7 m/s 761 mmHg 29%
10:00 +23°C° 0 mm 8 m/s 761 mmHg 26%
11:00 +24°C° 0 mm 8 m/s 760 mmHg 24%
12:00 +27°C° 0 mm 9 m/s 759 mmHg 21%
13:00 +28°C° 0 mm 9 m/s 759 mmHg 20%
14:00 +29°C° 0 mm 9 m/s 758 mmHg 18%
15:00 +31°C° 0 mm 9 m/s 757 mmHg 17%
16:00 +28°C° 0 mm 9 m/s 757 mmHg 25%
17:00 +26°C° 0 mm 9 m/s 758 mmHg 34%
18:00 +23°C° 0 mm 10 m/s 758 mmHg 42%
19:00 +23°C° 0 mm 9 m/s 758 mmHg 42%
20:00 +22°C° 0 mm 9 m/s 758 mmHg 43%
21:00 +22°C° 0 mm 8 m/s 758 mmHg 43%
22:00 +22°C° 0 mm 7 m/s 758 mmHg 40%
23:00 +22°C° 0 mm 6 m/s 758 mmHg 38%

30 Ianuarie, Sâmbătă

Timp Temperatura Precipitaţii Vânt Presiune Umiditate
00:00 +21°C° 0 mm 5 m/s 758 mmHg 35%
01:00 +21°C° 0 mm 5 m/s 758 mmHg 36%
02:00 +20°C° 0 mm 5 m/s 758 mmHg 37%
03:00 +20°C° 0 mm 5 m/s 757 mmHg 38%
04:00 +19°C° 0 mm 4 m/s 758 mmHg 39%
05:00 +19°C° 0 mm 3 m/s 758 mmHg 40%
06:00 +19°C° 0 mm 2 m/s 758 mmHg 41%
07:00 +19°C° 0 mm 4 m/s 759 mmHg 37%
08:00 +20°C° 0 mm 6 m/s 759 mmHg 33%
09:00 +20°C° 0 mm 8 m/s 760 mmHg 29%
10:00 +21°C° 0 mm 8 m/s 760 mmHg 26%
11:00 +22°C° 0 mm 9 m/s 760 mmHg 24%
12:00 +23°C° 0 mm 9 m/s 760 mmHg 22%
13:00 +23°C° 0 mm 9 m/s 760 mmHg 23%
14:00 +23°C° 0 mm 8 m/s 760 mmHg 23%
15:00 +23°C° 0 mm 8 m/s 760 mmHg 24%
16:00 +22°C° 0 mm 7 m/s 760 mmHg 26%
17:00 +20°C° 0 mm 6 m/s 761 mmHg 29%
18:00 +19°C° 0 mm 5 m/s 762 mmHg 31%
19:00 +19°C° 0 mm 5 m/s 762 mmHg 34%
20:00 +17°C° 0 mm 5 m/s 763 mmHg 37%
21:00 +16°C° 0 mm 5 m/s 764 mmHg 40%
22:00 +16°C° 0 mm 5 m/s 764 mmHg 41%
23:00 +15°C° 0 mm 6 m/s 764 mmHg 43%

31 Ianuarie, Duminică

Timp Temperatura Precipitaţii Vânt Presiune Umiditate
00:00 +14°C° 0 mm 6 m/s 764 mmHg 45%
01:00 +14°C° 0 mm 6 m/s 764 mmHg 47%
02:00 +14°C° 0 mm 6 m/s 764 mmHg 49%
03:00 +13°C° 0 mm 6 m/s 764 mmHg 50%
04:00 +13°C° 0 mm 6 m/s 764 mmHg 50%
05:00 +12°C° 0 mm 5 m/s 764 mmHg 50%
06:00 +12°C° 0 mm 5 m/s 764 mmHg 50%
07:00 +13°C° 0 mm 5 m/s 765 mmHg 47%
08:00 +14°C° 0 mm 5 m/s 765 mmHg 43%
09:00 +15°C° 0 mm 5 m/s 766 mmHg 40%
10:00 +16°C° 0 mm 5 m/s 766 mmHg 37%
11:00 +17°C° 0 mm 5 m/s 766 mmHg 34%
12:00 +20°C° 0 mm 5 m/s 765 mmHg 31%
13:00 +20°C° 0 mm 5 m/s 765 mmHg 29%
14:00 +21°C° 0 mm 6 m/s 765 mmHg 27%
15:00 +21°C° 0 mm 6 m/s 765 mmHg 26%
16:00 +20°C° 0 mm 5 m/s 765 mmHg 29%
17:00 +19°C° 0 mm 4 m/s 765 mmHg 31%
18:00 +18°C° 0 mm 3 m/s 765 mmHg 34%
19:00 +18°C° 0 mm 3 m/s 765 mmHg 35%
20:00 +17°C° 0 mm 4 m/s 766 mmHg 36%
21:00 +17°C° 0 mm 4 m/s 766 mmHg 36%
22:00 +17°C° 0 mm 4 m/s 766 mmHg 38%
23:00 +15°C° 0 mm 5 m/s 766 mmHg 40%

1 Februarie, Luni

Timp Temperatura Precipitaţii Vânt Presiune Umiditate
00:00 +15°C° 0 mm 5 m/s 766 mmHg 41%
01:00 +14°C° 0 mm 5 m/s 766 mmHg 42%
02:00 +14°C° 0 mm 6 m/s 766 mmHg 43%
03:00 +14°C° 0 mm 6 m/s 766 mmHg 43%
04:00 +14°C° 0 mm 6 m/s 766 mmHg 44%
05:00 +13°C° 0 mm 6 m/s 766 mmHg 45%
06:00 +13°C° 0 mm 5 m/s 766 mmHg 46%
07:00 +14°C° 0 mm 5 m/s 767 mmHg 43%
08:00 +15°C° 0 mm 5 m/s 767 mmHg 40%
09:00 +16°C° 0 mm 5 m/s 767 mmHg 37%
10:00 +19°C° 0 mm 5 m/s 767 mmHg 34%
11:00 +20°C° 0 mm 4 m/s 767 mmHg 30%
12:00 +21°C° 0 mm 4 m/s 766 mmHg 26%
13:00 +22°C° 0 mm 4 m/s 766 mmHg 25%
14:00 +22°C° 0 mm 4 m/s 765 mmHg 24%
15:00 +23°C° 0 mm 4 m/s 765 mmHg 22%
16:00 +22°C° 0 mm 3 m/s 765 mmHg 26%
17:00 +20°C° 0 mm 3 m/s 765 mmHg 29%
18:00 +19°C° 0 mm 2 m/s 765 mmHg 33%
19:00 +18°C° 0 mm 2 m/s 765 mmHg 34%
20:00 +18°C° 0 mm 2 m/s 766 mmHg 34%
21:00 +18°C° 0 mm 2 m/s 766 mmHg 35%
22:00 +17°C° 0 mm 3 m/s 766 mmHg 35%
23:00 +17°C° 0 mm 3 m/s 765 mmHg 36%
Arată mai mult

Formular de consimțământ

Meteoprog și furnizorii noștri de servicii pot stoca și accesa date personale, precum cookies, identificatori de dispozitiv sau alte tehnologii similare pe dispozitivul dumneavoastră și procesa astfel de date pentru a personaliza conținutul și reclamele, dar și pentru a oferi caracteristici de social media și pentru a analiza traficul.

  • Stocarea și/sau accesarea informațiilor pe dispozitivul dumneavoastră

    Cookies, identificatori de dispozitiv sau alte informații pot fi stocate sau accesate pe dispozitiv în scopurile indicate mai sus.

  • Reclame și conținut personalizat, evaluarea reclamelor și a conținutului, informații despre audiențe și dezvoltarea produselor

    Reclamele și conținutul pot fi personalizate pe baza unui profil. Pot fi adăugate date suplimentare pentru a personaliza mai bine reclamele și conținutul. Performanța reclamelor și conținutului poate fi măsurată. Pot fi obținute informații despre utilizatorii care au văzut reclamele și conținutul. Aceste date pot fi utilizate pentru a dezvolta sau îmbunătăți experiența utilizatorilor, sistemele și software-ul.

Dând clic pe ‘Sunt de acord’, permiteți utilizarea cookie-urilor menționate, a identificatorilor de dispozitiv, balizelor web sau altor tehnologii similare. Setările pot fi modificate din browser-ul dispozitivului dumneavoastră.

În anumite scopuri, interesele legitime pot prima asupra consimțământului. Puteți citi mai multe informații în acest sens în Politica privind Confidențialitatea Datelor și Cookie.